owner,sensor,date,latitude,longitude,vertical_datum,sea_water_practical_salinity,qcFlag 
TABS,ioos:station:wmo:42051:1,2015-11-01T00:00:00Z,29.6350,-93.6417,2.0,26.1398,11111222 
TABS,ioos:station:wmo:42051:1,2015-11-01T00:30:00Z,29.6350,-93.6417,2.0,26.2463,11111222 
TABS,ioos:station:wmo:42051:1,2015-11-01T01:00:00Z,29.6350,-93.6417,2.0,26.3872,11111222 
TABS,ioos:station:wmo:42051:1,2015-11-01T01:30:00Z,29.6350,-93.6417,2.0,26.5215,11111222 
TABS,ioos:station:wmo:42051:1,2015-11-01T02:00:00Z,29.6350,-93.6417,2.0,26.5367,11111222 
TABS,ioos:station:wmo:42051:1,2015-11-01T02:30:00Z,29.6350,-93.6417,2.0,26.4942,11111222 
TABS,ioos:station:wmo:42051:1,2015-11-01T03:00:00Z,29.6350,-93.6417,2.0,26.4924,11111222 
TABS,ioos:station:wmo:42051:1,2015-11-01T03:30:00Z,29.6350,-93.6417,2.0,26.4596,11111222 
TABS,ioos:station:wmo:42051:1,2015-11-01T04:00:00Z,29.6350,-93.6417,2.0,26.4813,11111222 
TABS,ioos:station:wmo:42051:1,2015-11-01T04:30:00Z,29.6350,-93.6417,2.0,26.4743,11111222 
TABS,ioos:station:wmo:42051:1,2015-11-01T05:00:00Z,29.6350,-93.6417,2.0,26.4493,11111222 
TABS,ioos:station:wmo:42051:1,2015-11-01T05:30:00Z,29.6350,-93.6417,2.0,26.4099,11111222 
TABS,ioos:station:wmo:42051:1,2015-11-01T06:00:00Z,29.6350,-93.6417,2.0,26.4078,11111222 
TABS,ioos:station:wmo:42051:1,2015-11-01T06:30:00Z,29.6350,-93.6417,2.0,26.3499,11111222 
TABS,ioos:station:wmo:42051:1,2015-11-01T07:00:00Z,29.6350,-93.6417,2.0,26.3236,11111222 
TABS,ioos:station:wmo:42051:1,2015-11-01T07:30:00Z,29.6350,-93.6417,2.0,26.2987,11111222 
TABS,ioos:station:wmo:42051:1,2015-11-01T08:00:00Z,29.6350,-93.6417,2.0,26.2823,11111222 
TABS,ioos:station:wmo:42051:1,2015-11-01T08:30:00Z,29.6350,-93.6417,2.0,26.3073,11111222 
TABS,ioos:station:wmo:42051:1,2015-11-01T09:00:00Z,29.6350,-93.6417,2.0,26.3243,11111222 
TABS,ioos:station:wmo:42051:1,2015-11-01T09:30:00Z,29.6350,-93.6417,2.0,26.3343,11111222 
TABS,ioos:station:wmo:42051:1,2015-11-01T10:00:00Z,29.6350,-93.6417,2.0,26.3223,11111222 
TABS,ioos:station:wmo:42051:1,2015-11-01T10:30:00Z,29.6350,-93.6417,2.0,26.3229,11111222 
TABS,ioos:station:wmo:42051:1,2015-11-01T11:00:00Z,29.6350,-93.6417,2.0,26.3608,11111222 
TABS,ioos:station:wmo:42051:1,2015-11-01T11:30:00Z,29.6350,-93.6417,2.0,26.441,11111222 
TABS,ioos:station:wmo:42051:1,2015-11-01T12:00:00Z,29.6350,-93.6417,2.0,26.5291,11111222 
TABS,ioos:station:wmo:42051:1,2015-11-01T12:30:00Z,29.6350,-93.6417,2.0,26.583,11111222 
TABS,ioos:station:wmo:42051:1,2015-11-01T13:00:00Z,29.6350,-93.6417,2.0,26.5979,11111222 
TABS,ioos:station:wmo:42051:1,2015-11-01T13:30:00Z,29.6350,-93.6417,2.0,26.6725,11111222 
TABS,ioos:station:wmo:42051:1,2015-11-01T14:00:00Z,29.6350,-93.6417,2.0,26.7301,11111222 
TABS,ioos:station:wmo:42051:1,2015-11-01T14:30:00Z,29.6350,-93.6417,2.0,26.7599,11111222 
TABS,ioos:station:wmo:42051:1,2015-11-01T15:00:00Z,29.6350,-93.6417,2.0,26.7569,11111222 
TABS,ioos:station:wmo:42051:1,2015-11-01T15:30:00Z,29.6350,-93.6417,2.0,26.7604,11111222 
TABS,ioos:station:wmo:42051:1,2015-11-01T16:00:00Z,29.6350,-93.6417,2.0,26.7544,11111222 
TABS,ioos:station:wmo:42051:1,2015-11-01T16:30:00Z,29.6350,-93.6417,2.0,26.7491,11111222 
TABS,ioos:station:wmo:42051:1,2015-11-01T17:00:00Z,29.6350,-93.6417,2.0,26.7373,11111222 
TABS,ioos:station:wmo:42051:1,2015-11-01T17:30:00Z,29.6350,-93.6417,2.0,26.7442,11111222 
TABS,ioos:station:wmo:42051:1,2015-11-01T18:00:00Z,29.6350,-93.6417,2.0,26.766,11111222 
TABS,ioos:station:wmo:42051:1,2015-11-01T18:30:00Z,29.6350,-93.6417,2.0,26.8054,11111222 
TABS,ioos:station:wmo:42051:1,2015-11-01T19:00:00Z,29.6350,-93.6417,2.0,26.8642,11111222 
TABS,ioos:station:wmo:42051:1,2015-11-01T19:30:00Z,29.6350,-93.6417,2.0,26.9135,11111222 
TABS,ioos:station:wmo:42051:1,2015-11-01T20:00:00Z,29.6350,-93.6417,2.0,26.9365,11111222 
TABS,ioos:station:wmo:42051:1,2015-11-01T20:30:00Z,29.6350,-93.6417,2.0,26.9519,11111222 
TABS,ioos:station:wmo:42051:1,2015-11-01T21:00:00Z,29.6350,-93.6417,2.0,26.9562,11111222 
TABS,ioos:station:wmo:42051:1,2015-11-01T21:30:00Z,29.6350,-93.6417,2.0,26.9558,11111222 
TABS,ioos:station:wmo:42051:1,2015-11-01T22:00:00Z,29.6350,-93.6417,2.0,26.9673,11111222 
TABS,ioos:station:wmo:42051:1,2015-11-01T22:30:00Z,29.6350,-93.6417,2.0,26.9975,11111222 
TABS,ioos:station:wmo:42051:1,2015-11-01T23:00:00Z,29.6350,-93.6417,2.0,27.0243,11111222 
TABS,ioos:station:wmo:42051:1,2015-11-01T23:30:00Z,29.6350,-93.6417,2.0,27.0528,11111222 
TABS,ioos:station:wmo:42051:1,2015-11-02T00:00:00Z,29.6350,-93.6417,2.0,27.0882,11111222 
TABS,ioos:station:wmo:42051:1,2015-11-02T00:30:00Z,29.6350,-93.6417,2.0,27.1243,11111222 
TABS,ioos:station:wmo:42051:1,2015-11-02T01:00:00Z,29.6350,-93.6417,2.0,27.1465,11111222 
TABS,ioos:station:wmo:42051:1,2015-11-02T01:30:00Z,29.6350,-93.6417,2.0,27.2035,11111222 
TABS,ioos:station:wmo:42051:1,2015-11-02T02:00:00Z,29.6350,-93.6417,2.0,27.3236,11111222 
TABS,ioos:station:wmo:42051:1,2015-11-02T02:30:00Z,29.6350,-93.6417,2.0,27.5281,11111222 
TABS,ioos:station:wmo:42051:1,2015-11-02T03:00:00Z,29.6350,-93.6417,2.0,27.7248,11111222 
TABS,ioos:station:wmo:42051:1,2015-11-02T03:30:00Z,29.6350,-93.6417,2.0,27.8705,11111222 
TABS,ioos:station:wmo:42051:1,2015-11-02T04:00:00Z,29.6350,-93.6417,2.0,27.9423,11111222 
TABS,ioos:station:wmo:42051:1,2015-11-02T04:30:00Z,29.6350,-93.6417,2.0,28.0627,11111222 
TABS,ioos:station:wmo:42051:1,2015-11-02T05:00:00Z,29.6350,-93.6417,2.0,28.162,11111222 
TABS,ioos:station:wmo:42051:1,2015-11-02T05:30:00Z,29.6350,-93.6417,2.0,28.2476,11111222 
TABS,ioos:station:wmo:42051:1,2015-11-02T06:00:00Z,29.6350,-93.6417,2.0,28.2979,11111222 
TABS,ioos:station:wmo:42051:1,2015-11-02T06:30:00Z,29.6350,-93.6417,2.0,28.3373,11111222 
TABS,ioos:station:wmo:42051:1,2015-11-02T07:00:00Z,29.6350,-93.6417,2.0,28.3722,11111222 
TABS,ioos:station:wmo:42051:1,2015-11-02T07:30:00Z,29.6350,-93.6417,2.0,28.4163,11111222 
TABS,ioos:station:wmo:42051:1,2015-11-02T08:00:00Z,29.6350,-93.6417,2.0,28.4449,11111222 
TABS,ioos:station:wmo:42051:1,2015-11-02T08:30:00Z,29.6350,-93.6417,2.0,28.4648,11111222 
TABS,ioos:station:wmo:42051:1,2015-11-02T09:00:00Z,29.6350,-93.6417,2.0,28.4913,11111222 
TABS,ioos:station:wmo:42051:1,2015-11-02T09:30:00Z,29.6350,-93.6417,2.0,28.4843,11111222 
TABS,ioos:station:wmo:42051:1,2015-11-02T10:00:00Z,29.6350,-93.6417,2.0,28.5058,11111222 
TABS,ioos:station:wmo:42051:1,2015-11-02T10:30:00Z,29.6350,-93.6417,2.0,28.5069,11111222 
TABS,ioos:station:wmo:42051:1,2015-11-02T11:00:00Z,29.6350,-93.6417,2.0,28.5217,11111222 
TABS,ioos:station:wmo:42051:1,2015-11-02T11:30:00Z,29.6350,-93.6417,2.0,28.5392,11111222 
TABS,ioos:station:wmo:42051:1,2015-11-02T12:00:00Z,29.6350,-93.6417,2.0,28.5421,11111222 
TABS,ioos:station:wmo:42051:1,2015-11-02T12:30:00Z,29.6350,-93.6417,2.0,28.5479,11111222 
TABS,ioos:station:wmo:42051:1,2015-11-02T13:00:00Z,29.6350,-93.6417,2.0,28.551,11111222 
TABS,ioos:station:wmo:42051:1,2015-11-02T13:30:00Z,29.6350,-93.6417,2.0,28.5544,11111222 
TABS,ioos:station:wmo:42051:1,2015-11-02T14:00:00Z,29.6350,-93.6417,2.0,28.5527,11111222 
TABS,ioos:station:wmo:42051:1,2015-11-02T14:30:00Z,29.6350,-93.6417,2.0,28.5398,11111222 
TABS,ioos:station:wmo:42051:1,2015-11-02T15:00:00Z,29.6350,-93.6417,2.0,28.5331,11111222 
TABS,ioos:station:wmo:42051:1,2015-11-02T15:30:00Z,29.6350,-93.6417,2.0,28.517,11111222 
TABS,ioos:station:wmo:42051:1,2015-11-02T16:00:00Z,29.6350,-93.6417,2.0,28.5029,11111222 
TABS,ioos:station:wmo:42051:1,2015-11-02T16:30:00Z,29.6350,-93.6417,2.0,28.4963,11111222 
TABS,ioos:station:wmo:42051:1,2015-11-02T17:00:00Z,29.6350,-93.6417,2.0,28.4976,11111222 
TABS,ioos:station:wmo:42051:1,2015-11-02T17:30:00Z,29.6350,-93.6417,2.0,28.4965,11111222 
TABS,ioos:station:wmo:42051:1,2015-11-02T18:00:00Z,29.6350,-93.6417,2.0,28.513,11111222 
TABS,ioos:station:wmo:42051:1,2015-11-02T18:30:00Z,29.6350,-93.6417,2.0,28.4606,11111222 
TABS,ioos:station:wmo:42051:1,2015-11-02T19:00:00Z,29.6350,-93.6417,2.0,28.4162,11111222 
TABS,ioos:station:wmo:42051:1,2015-11-02T19:30:00Z,29.6350,-93.6417,2.0,28.4021,11111222 
TABS,ioos:station:wmo:42051:1,2015-11-02T20:00:00Z,29.6350,-93.6417,2.0,28.3678,11111222 
TABS,ioos:station:wmo:42051:1,2015-11-02T20:30:00Z,29.6350,-93.6417,2.0,28.3584,11111222 
TABS,ioos:station:wmo:42051:1,2015-11-02T21:00:00Z,29.6350,-93.6417,2.0,28.3542,11111222 
TABS,ioos:station:wmo:42051:1,2015-11-02T21:30:00Z,29.6350,-93.6417,2.0,28.3376,11111222 
TABS,ioos:station:wmo:42051:1,2015-11-02T22:00:00Z,29.6350,-93.6417,2.0,28.2296,11111222 
TABS,ioos:station:wmo:42051:1,2015-11-02T22:30:00Z,29.6350,-93.6417,2.0,28.2243,11111222 
TABS,ioos:station:wmo:42051:1,2015-11-02T23:00:00Z,29.6350,-93.6417,2.0,28.1834,11111222 
TABS,ioos:station:wmo:42051:1,2015-11-02T23:30:00Z,29.6350,-93.6417,2.0,28.1409,11111222 
TABS,ioos:station:wmo:42051:1,2015-11-03T00:00:00Z,29.6350,-93.6417,2.0,28.0372,11111222 
TABS,ioos:station:wmo:42051:1,2015-11-03T00:30:00Z,29.6350,-93.6417,2.0,27.9061,11111222 
TABS,ioos:station:wmo:42051:1,2015-11-03T01:00:00Z,29.6350,-93.6417,2.0,27.8319,11111222 
TABS,ioos:station:wmo:42051:1,2015-11-03T01:30:00Z,29.6350,-93.6417,2.0,27.7805,11111222 
TABS,ioos:station:wmo:42051:1,2015-11-03T02:00:00Z,29.6350,-93.6417,2.0,27.7496,11111222 
TABS,ioos:station:wmo:42051:1,2015-11-03T02:30:00Z,29.6350,-93.6417,2.0,27.8064,11111222 
TABS,ioos:station:wmo:42051:1,2015-11-03T03:00:00Z,29.6350,-93.6417,2.0,27.757,11111222 
TABS,ioos:station:wmo:42051:1,2015-11-03T03:30:00Z,29.6350,-93.6417,2.0,27.7234,11111222 
TABS,ioos:station:wmo:42051:1,2015-11-03T04:00:00Z,29.6350,-93.6417,2.0,27.7415,11111222 
TABS,ioos:station:wmo:42051:1,2015-11-03T04:30:00Z,29.6350,-93.6417,2.0,27.6478,11111222 
TABS,ioos:station:wmo:42051:1,2015-11-03T05:00:00Z,29.6350,-93.6417,2.0,27.5356,11111222 
TABS,ioos:station:wmo:42051:1,2015-11-03T05:30:00Z,29.6350,-93.6417,2.0,27.4682,11111222 
TABS,ioos:station:wmo:42051:1,2015-11-03T06:00:00Z,29.6350,-93.6417,2.0,27.4097,11111222 
TABS,ioos:station:wmo:42051:1,2015-11-03T06:30:00Z,29.6350,-93.6417,2.0,27.3589,11111222 
TABS,ioos:station:wmo:42051:1,2015-11-03T07:00:00Z,29.6350,-93.6417,2.0,27.3328,11111222 
TABS,ioos:station:wmo:42051:1,2015-11-03T07:30:00Z,29.6350,-93.6417,2.0,27.3191,11111222 
TABS,ioos:station:wmo:42051:1,2015-11-03T08:00:00Z,29.6350,-93.6417,2.0,27.2998,11111222 
TABS,ioos:station:wmo:42051:1,2015-11-03T08:30:00Z,29.6350,-93.6417,2.0,27.2716,11111222 
TABS,ioos:station:wmo:42051:1,2015-11-03T09:00:00Z,29.6350,-93.6417,2.0,27.2564,11111222 
TABS,ioos:station:wmo:42051:1,2015-11-03T09:30:00Z,29.6350,-93.6417,2.0,27.2396,11111222 
TABS,ioos:station:wmo:42051:1,2015-11-03T10:00:00Z,29.6350,-93.6417,2.0,27.2262,11111222 
TABS,ioos:station:wmo:42051:1,2015-11-03T10:30:00Z,29.6350,-93.6417,2.0,27.2195,11111222 
TABS,ioos:station:wmo:42051:1,2015-11-03T11:00:00Z,29.6350,-93.6417,2.0,27.224,11111222 
TABS,ioos:station:wmo:42051:1,2015-11-03T11:30:00Z,29.6350,-93.6417,2.0,27.2201,11111222 
TABS,ioos:station:wmo:42051:1,2015-11-03T12:00:00Z,29.6350,-93.6417,2.0,27.2421,11111222 
TABS,ioos:station:wmo:42051:1,2015-11-03T12:30:00Z,29.6350,-93.6417,2.0,27.2492,11111222 
TABS,ioos:station:wmo:42051:1,2015-11-03T13:00:00Z,29.6350,-93.6417,2.0,27.2532,11111222 
TABS,ioos:station:wmo:42051:1,2015-11-03T13:30:00Z,29.6350,-93.6417,2.0,27.256,11111222 
TABS,ioos:station:wmo:42051:1,2015-11-03T14:00:00Z,29.6350,-93.6417,2.0,27.2592,11111222 
TABS,ioos:station:wmo:42051:1,2015-11-03T14:30:00Z,29.6350,-93.6417,2.0,27.2611,11111222 
TABS,ioos:station:wmo:42051:1,2015-11-03T15:00:00Z,29.6350,-93.6417,2.0,27.2595,11111222 
TABS,ioos:station:wmo:42051:1,2015-11-03T15:30:00Z,29.6350,-93.6417,2.0,27.2595,11111222 
TABS,ioos:station:wmo:42051:1,2015-11-03T16:00:00Z,29.6350,-93.6417,2.0,27.2599,11111222 
TABS,ioos:station:wmo:42051:1,2015-11-03T16:30:00Z,29.6350,-93.6417,2.0,27.2554,11111222 
TABS,ioos:station:wmo:42051:1,2015-11-03T17:00:00Z,29.6350,-93.6417,2.0,27.2531,11111222 
TABS,ioos:station:wmo:42051:1,2015-11-03T17:30:00Z,29.6350,-93.6417,2.0,27.2531,11111222 
TABS,ioos:station:wmo:42051:1,2015-11-03T18:00:00Z,29.6350,-93.6417,2.0,27.2636,11111222 
TABS,ioos:station:wmo:42051:1,2015-11-03T18:30:00Z,29.6350,-93.6417,2.0,27.2824,11111222 
TABS,ioos:station:wmo:42051:1,2015-11-03T19:00:00Z,29.6350,-93.6417,2.0,27.3019,11111222 
TABS,ioos:station:wmo:42051:1,2015-11-03T19:30:00Z,29.6350,-93.6417,2.0,27.2963,11111222 
TABS,ioos:station:wmo:42051:1,2015-11-03T20:00:00Z,29.6350,-93.6417,2.0,27.2938,11111222 
TABS,ioos:station:wmo:42051:1,2015-11-03T20:30:00Z,29.6350,-93.6417,2.0,27.3002,11111222 
TABS,ioos:station:wmo:42051:1,2015-11-03T21:00:00Z,29.6350,-93.6417,2.0,27.2855,11111222 
TABS,ioos:station:wmo:42051:1,2015-11-03T21:30:00Z,29.6350,-93.6417,2.0,27.3189,11111222 
TABS,ioos:station:wmo:42051:1,2015-11-03T22:00:00Z,29.6350,-93.6417,2.0,27.3364,11111222 
TABS,ioos:station:wmo:42051:1,2015-11-03T22:30:00Z,29.6350,-93.6417,2.0,27.3343,11111222 
TABS,ioos:station:wmo:42051:1,2015-11-03T23:00:00Z,29.6350,-93.6417,2.0,27.3832,11111222 
TABS,ioos:station:wmo:42051:1,2015-11-03T23:30:00Z,29.6350,-93.6417,2.0,27.3732,11111222 
TABS,ioos:station:wmo:42051:1,2015-11-04T00:00:00Z,29.6350,-93.6417,2.0,27.3767,11111222 
TABS,ioos:station:wmo:42051:1,2015-11-04T00:30:00Z,29.6350,-93.6417,2.0,27.3708,11111222 
TABS,ioos:station:wmo:42051:1,2015-11-04T01:00:00Z,29.6350,-93.6417,2.0,27.3754,11111222 
TABS,ioos:station:wmo:42051:1,2015-11-04T01:30:00Z,29.6350,-93.6417,2.0,27.3786,11111222 
TABS,ioos:station:wmo:42051:1,2015-11-04T02:00:00Z,29.6350,-93.6417,2.0,27.3949,11111222 
TABS,ioos:station:wmo:42051:1,2015-11-04T02:30:00Z,29.6350,-93.6417,2.0,27.4055,11111222 
TABS,ioos:station:wmo:42051:1,2015-11-04T03:00:00Z,29.6350,-93.6417,2.0,27.412,11111222 
TABS,ioos:station:wmo:42051:1,2015-11-04T03:30:00Z,29.6350,-93.6417,2.0,27.4419,11111222 
TABS,ioos:station:wmo:42051:1,2015-11-04T04:00:00Z,29.6350,-93.6417,2.0,27.4543,11111222 
TABS,ioos:station:wmo:42051:1,2015-11-04T04:30:00Z,29.6350,-93.6417,2.0,27.4796,11111222 
TABS,ioos:station:wmo:42051:1,2015-11-04T05:00:00Z,29.6350,-93.6417,2.0,27.493,11111222 
TABS,ioos:station:wmo:42051:1,2015-11-04T05:30:00Z,29.6350,-93.6417,2.0,27.4815,11111222 
TABS,ioos:station:wmo:42051:1,2015-11-04T06:00:00Z,29.6350,-93.6417,2.0,27.4827,11111222 
TABS,ioos:station:wmo:42051:1,2015-11-04T06:30:00Z,29.6350,-93.6417,2.0,27.5123,11111222 
TABS,ioos:station:wmo:42051:1,2015-11-04T07:00:00Z,29.6350,-93.6417,2.0,27.5244,11111222 
TABS,ioos:station:wmo:42051:1,2015-11-04T07:30:00Z,29.6350,-93.6417,2.0,27.5452,11111222 
TABS,ioos:station:wmo:42051:1,2015-11-04T08:00:00Z,29.6350,-93.6417,2.0,27.5277,11111222 
TABS,ioos:station:wmo:42051:1,2015-11-04T08:30:00Z,29.6350,-93.6417,2.0,27.5384,11111222 
TABS,ioos:station:wmo:42051:1,2015-11-04T09:00:00Z,29.6350,-93.6417,2.0,27.5166,11111222 
TABS,ioos:station:wmo:42051:1,2015-11-04T09:30:00Z,29.6350,-93.6417,2.0,27.5094,11111222 
TABS,ioos:station:wmo:42051:1,2015-11-04T10:00:00Z,29.6350,-93.6417,2.0,27.4985,11111222 
TABS,ioos:station:wmo:42051:1,2015-11-04T10:30:00Z,29.6350,-93.6417,2.0,27.5232,11111222 
TABS,ioos:station:wmo:42051:1,2015-11-04T11:00:00Z,29.6350,-93.6417,2.0,27.548,11111222 
TABS,ioos:station:wmo:42051:1,2015-11-04T11:30:00Z,29.6350,-93.6417,2.0,27.5177,11111222 
TABS,ioos:station:wmo:42051:1,2015-11-04T12:00:00Z,29.6350,-93.6417,2.0,27.4792,11111222 
TABS,ioos:station:wmo:42051:1,2015-11-04T12:30:00Z,29.6350,-93.6417,2.0,27.4575,11111222 
TABS,ioos:station:wmo:42051:1,2015-11-04T13:00:00Z,29.6350,-93.6417,2.0,27.4427,11111222 
TABS,ioos:station:wmo:42051:1,2015-11-04T13:30:00Z,29.6350,-93.6417,2.0,27.45,11111222 
TABS,ioos:station:wmo:42051:1,2015-11-04T14:00:00Z,29.6350,-93.6417,2.0,27.4754,11111222 
TABS,ioos:station:wmo:42051:1,2015-11-04T14:30:00Z,29.6350,-93.6417,2.0,27.471,11111222 
TABS,ioos:station:wmo:42051:1,2015-11-04T15:00:00Z,29.6350,-93.6417,2.0,27.4728,11111222 
TABS,ioos:station:wmo:42051:1,2015-11-04T15:30:00Z,29.6350,-93.6417,2.0,27.4812,11111222 
TABS,ioos:station:wmo:42051:1,2015-11-04T16:00:00Z,29.6350,-93.6417,2.0,27.4994,11111222 
TABS,ioos:station:wmo:42051:1,2015-11-04T16:30:00Z,29.6350,-93.6417,2.0,27.517,11111222 
TABS,ioos:station:wmo:42051:1,2015-11-04T17:00:00Z,29.6350,-93.6417,2.0,27.5307,11111222 
TABS,ioos:station:wmo:42051:1,2015-11-04T17:30:00Z,29.6350,-93.6417,2.0,27.5535,11111222 
TABS,ioos:station:wmo:42051:1,2015-11-04T18:00:00Z,29.6350,-93.6417,2.0,27.578,11111222 
TABS,ioos:station:wmo:42051:1,2015-11-04T18:30:00Z,29.6350,-93.6417,2.0,27.609,11111222 
TABS,ioos:station:wmo:42051:1,2015-11-04T19:00:00Z,29.6350,-93.6417,2.0,27.6486,11111222 
TABS,ioos:station:wmo:42051:1,2015-11-04T19:30:00Z,29.6350,-93.6417,2.0,27.7211,11111222 
TABS,ioos:station:wmo:42051:1,2015-11-04T20:00:00Z,29.6350,-93.6417,2.0,27.7609,11111222 
TABS,ioos:station:wmo:42051:1,2015-11-04T20:30:00Z,29.6350,-93.6417,2.0,27.7294,11111222 
TABS,ioos:station:wmo:42051:1,2015-11-04T21:00:00Z,29.6350,-93.6417,2.0,27.622,11111222 
TABS,ioos:station:wmo:42051:1,2015-11-04T21:30:00Z,29.6350,-93.6417,2.0,27.5911,11111222 
TABS,ioos:station:wmo:42051:1,2015-11-04T22:00:00Z,29.6350,-93.6417,2.0,27.6198,11111222 
TABS,ioos:station:wmo:42051:1,2015-11-04T22:30:00Z,29.6350,-93.6417,2.0,27.6663,11111222 
TABS,ioos:station:wmo:42051:1,2015-11-04T23:00:00Z,29.6350,-93.6417,2.0,27.7146,11111222 
TABS,ioos:station:wmo:42051:1,2015-11-04T23:30:00Z,29.6350,-93.6417,2.0,27.7468,11111222 
TABS,ioos:station:wmo:42051:1,2015-11-05T00:00:00Z,29.6350,-93.6417,2.0,27.7649,11111222 
TABS,ioos:station:wmo:42051:1,2015-11-05T00:30:00Z,29.6350,-93.6417,2.0,27.8355,11111222 
TABS,ioos:station:wmo:42051:1,2015-11-05T01:00:00Z,29.6350,-93.6417,2.0,27.9005,11111222 
TABS,ioos:station:wmo:42051:1,2015-11-05T01:30:00Z,29.6350,-93.6417,2.0,28.0059,11111222 
TABS,ioos:station:wmo:42051:1,2015-11-05T02:00:00Z,29.6350,-93.6417,2.0,28.0737,11111222 
TABS,ioos:station:wmo:42051:1,2015-11-05T02:30:00Z,29.6350,-93.6417,2.0,28.0873,11111222 
TABS,ioos:station:wmo:42051:1,2015-11-05T03:00:00Z,29.6350,-93.6417,2.0,28.1212,11111222 
TABS,ioos:station:wmo:42051:1,2015-11-05T03:30:00Z,29.6350,-93.6417,2.0,28.1776,11111222 
TABS,ioos:station:wmo:42051:1,2015-11-05T04:00:00Z,29.6350,-93.6417,2.0,28.2369,11111222 
TABS,ioos:station:wmo:42051:1,2015-11-05T04:30:00Z,29.6350,-93.6417,2.0,28.2908,11111222 
TABS,ioos:station:wmo:42051:1,2015-11-05T05:00:00Z,29.6350,-93.6417,2.0,28.3165,11111222 
TABS,ioos:station:wmo:42051:1,2015-11-05T05:30:00Z,29.6350,-93.6417,2.0,28.311,11111222 
TABS,ioos:station:wmo:42051:1,2015-11-05T06:00:00Z,29.6350,-93.6417,2.0,28.3692,11111222 
TABS,ioos:station:wmo:42051:1,2015-11-05T06:30:00Z,29.6350,-93.6417,2.0,28.4459,11111222 
TABS,ioos:station:wmo:42051:1,2015-11-05T07:00:00Z,29.6350,-93.6417,2.0,28.448,11111222 
TABS,ioos:station:wmo:42051:1,2015-11-05T07:30:00Z,29.6350,-93.6417,2.0,28.4609,11111222 
TABS,ioos:station:wmo:42051:1,2015-11-05T08:00:00Z,29.6350,-93.6417,2.0,28.4333,11111222 
TABS,ioos:station:wmo:42051:1,2015-11-05T08:30:00Z,29.6350,-93.6417,2.0,28.4492,11111222 
TABS,ioos:station:wmo:42051:1,2015-11-05T09:00:00Z,29.6350,-93.6417,2.0,28.449,11111222 
TABS,ioos:station:wmo:42051:1,2015-11-05T09:30:00Z,29.6350,-93.6417,2.0,28.4828,11111222 
TABS,ioos:station:wmo:42051:1,2015-11-05T10:00:00Z,29.6350,-93.6417,2.0,28.4828,11111222 
TABS,ioos:station:wmo:42051:1,2015-11-05T10:30:00Z,29.6350,-93.6417,2.0,28.4762,11111222 
TABS,ioos:station:wmo:42051:1,2015-11-05T11:00:00Z,29.6350,-93.6417,2.0,28.4818,11111222 
TABS,ioos:station:wmo:42051:1,2015-11-05T11:30:00Z,29.6350,-93.6417,2.0,28.4933,11111222 
TABS,ioos:station:wmo:42051:1,2015-11-05T12:00:00Z,29.6350,-93.6417,2.0,28.4581,11111222 
TABS,ioos:station:wmo:42051:1,2015-11-05T12:30:00Z,29.6350,-93.6417,2.0,28.4585,11111222 
TABS,ioos:station:wmo:42051:1,2015-11-05T13:00:00Z,29.6350,-93.6417,2.0,28.2884,11111222 
TABS,ioos:station:wmo:42051:1,2015-11-05T13:30:00Z,29.6350,-93.6417,2.0,28.2635,11111222 
TABS,ioos:station:wmo:42051:1,2015-11-05T14:00:00Z,29.6350,-93.6417,2.0,28.1174,11111222 
TABS,ioos:station:wmo:42051:1,2015-11-05T14:30:00Z,29.6350,-93.6417,2.0,28.0693,11111222 
TABS,ioos:station:wmo:42051:1,2015-11-05T15:00:00Z,29.6350,-93.6417,2.0,28.1777,11111222 
TABS,ioos:station:wmo:42051:1,2015-11-05T15:30:00Z,29.6350,-93.6417,2.0,28.1575,11111222 
TABS,ioos:station:wmo:42051:1,2015-11-05T16:00:00Z,29.6350,-93.6417,2.0,28.1871,11111222 
TABS,ioos:station:wmo:42051:1,2015-11-05T16:30:00Z,29.6350,-93.6417,2.0,28.2571,11111222 
TABS,ioos:station:wmo:42051:1,2015-11-05T17:00:00Z,29.6350,-93.6417,2.0,28.2794,11111222 
TABS,ioos:station:wmo:42051:1,2015-11-05T17:30:00Z,29.6350,-93.6417,2.0,28.2432,11111222 
TABS,ioos:station:wmo:42051:1,2015-11-05T18:00:00Z,29.6350,-93.6417,2.0,28.3017,11111222 
TABS,ioos:station:wmo:42051:1,2015-11-05T18:30:00Z,29.6350,-93.6417,2.0,28.3213,11111222 
TABS,ioos:station:wmo:42051:1,2015-11-05T19:00:00Z,29.6350,-93.6417,2.0,28.4347,11111222 
TABS,ioos:station:wmo:42051:1,2015-11-05T19:30:00Z,29.6350,-93.6417,2.0,28.4085,11111222 
TABS,ioos:station:wmo:42051:1,2015-11-05T20:00:00Z,29.6350,-93.6417,2.0,28.442,11111222 
TABS,ioos:station:wmo:42051:1,2015-11-05T20:30:00Z,29.6350,-93.6417,2.0,28.4341,11111222 
TABS,ioos:station:wmo:42051:1,2015-11-05T21:00:00Z,29.6350,-93.6417,2.0,28.4289,11111222 
TABS,ioos:station:wmo:42051:1,2015-11-05T21:30:00Z,29.6350,-93.6417,2.0,28.4106,11111222 
TABS,ioos:station:wmo:42051:1,2015-11-05T22:00:00Z,29.6350,-93.6417,2.0,28.4077,11111222 
TABS,ioos:station:wmo:42051:1,2015-11-05T22:30:00Z,29.6350,-93.6417,2.0,28.4107,11111222 
TABS,ioos:station:wmo:42051:1,2015-11-05T23:00:00Z,29.6350,-93.6417,2.0,28.4141,11111222 
TABS,ioos:station:wmo:42051:1,2015-11-05T23:30:00Z,29.6350,-93.6417,2.0,28.4162,11111222 
TABS,ioos:station:wmo:42051:1,2015-11-06T00:00:00Z,29.6350,-93.6417,2.0,28.4245,11111222 
TABS,ioos:station:wmo:42051:1,2015-11-06T00:30:00Z,29.6350,-93.6417,2.0,28.42,11111222 
TABS,ioos:station:wmo:42051:1,2015-11-06T01:00:00Z,29.6350,-93.6417,2.0,28.412,11111222 
TABS,ioos:station:wmo:42051:1,2015-11-06T01:30:00Z,29.6350,-93.6417,2.0,28.4239,11111222 
TABS,ioos:station:wmo:42051:1,2015-11-06T02:00:00Z,29.6350,-93.6417,2.0,28.4512,11111222 
TABS,ioos:station:wmo:42051:1,2015-11-06T02:30:00Z,29.6350,-93.6417,2.0,28.5141,11111222 
TABS,ioos:station:wmo:42051:1,2015-11-06T03:00:00Z,29.6350,-93.6417,2.0,28.5103,11111222 
TABS,ioos:station:wmo:42051:1,2015-11-06T03:30:00Z,29.6350,-93.6417,2.0,28.4689,11111222 
TABS,ioos:station:wmo:42051:1,2015-11-06T04:00:00Z,29.6350,-93.6417,2.0,28.6352,11111222 
TABS,ioos:station:wmo:42051:1,2015-11-06T04:30:00Z,29.6350,-93.6417,2.0,28.5954,11111222 
TABS,ioos:station:wmo:42051:1,2015-11-06T05:00:00Z,29.6350,-93.6417,2.0,28.6303,11111222 
TABS,ioos:station:wmo:42051:1,2015-11-06T05:30:00Z,29.6350,-93.6417,2.0,28.6619,11111222 
TABS,ioos:station:wmo:42051:1,2015-11-06T06:00:00Z,29.6350,-93.6417,2.0,28.708,11111222 
TABS,ioos:station:wmo:42051:1,2015-11-06T06:30:00Z,29.6350,-93.6417,2.0,28.7137,11111222 
TABS,ioos:station:wmo:42051:1,2015-11-06T07:00:00Z,29.6350,-93.6417,2.0,28.664,11111222 
TABS,ioos:station:wmo:42051:1,2015-11-06T07:30:00Z,29.6350,-93.6417,2.0,28.6548,11111222 
TABS,ioos:station:wmo:42051:1,2015-11-06T08:00:00Z,29.6350,-93.6417,2.0,28.7041,11111222 
TABS,ioos:station:wmo:42051:1,2015-11-06T08:30:00Z,29.6350,-93.6417,2.0,28.7003,11111222 
TABS,ioos:station:wmo:42051:1,2015-11-06T09:00:00Z,29.6350,-93.6417,2.0,28.7277,11111222 
TABS,ioos:station:wmo:42051:1,2015-11-06T09:30:00Z,29.6350,-93.6417,2.0,28.7353,11111222 
TABS,ioos:station:wmo:42051:1,2015-11-06T10:00:00Z,29.6350,-93.6417,2.0,28.7778,11111222 
TABS,ioos:station:wmo:42051:1,2015-11-06T10:30:00Z,29.6350,-93.6417,2.0,28.7184,11111222 
TABS,ioos:station:wmo:42051:1,2015-11-06T11:00:00Z,29.6350,-93.6417,2.0,28.7032,11111222 
TABS,ioos:station:wmo:42051:1,2015-11-06T11:30:00Z,29.6350,-93.6417,2.0,28.7056,11111222 
TABS,ioos:station:wmo:42051:1,2015-11-06T12:00:00Z,29.6350,-93.6417,2.0,28.6745,11111222 
TABS,ioos:station:wmo:42051:1,2015-11-06T12:30:00Z,29.6350,-93.6417,2.0,28.6793,11111222 